Location: Unspecified
(0.0000°N, 0.0000°E)
Time: 11:16:30
(UTC+00:00)

Transit 4A - Pass Details

Date: 24 November 2019
Orbit: 870 x 975 km, 66.8° (Epoch: 13 December)

Event Time Altitude Azimuth Distance (km) Brightness Sun altitude
Rises 06:16:00 0° 4° (N) 3,440 10.7 6.9°
Reaches altitude 10° 06:18:55 10° 17° (NNE) 2,504 10.2 7.6°
Maximum altitude 06:23:31 24° 70° (ENE) 1,704 10.2 8.7°
Drops below altitude 10° 06:28:08 10° 123° (ESE) 2,530 12.4 9.7°
Sets 06:31:05 0° 136° (SE) 3,484 12.2 10.4°
